Theta_e
346 349 358 358 357 358 357 357 358 358 358 359 359 360 361 361 361 361 360 360 360 360 359 357 357 358 357 355 355 355 354 353 353 352 350 350 349 349 351 351 350 341 347
348 349 357 357 358 356 355 357 358 359 359 360 360 361 361 361 360 359 359 359 358 358 358 357 355 355 355 353 353 354 353 351 350 353 352 352 350 350 350 350 347 345 347
347 348 349 355 356 356 356 358 358 359 360 361 361 361 360 359 358 359 358 357 357 356 355 354 354 353 352 351 351 351 350 354 355 353 354 349 347 352 351 350 348 347 346
346 348 348 353 353 356 357 356 358 360 361 361 360 358 358 358 357 357 357 357 357 354 353 353 352 352 352 351 350 350 351 352 356 357 353 351 348 353 352 350 349 348 347
345 347 352 352 354 354 354 356 359 360 360 359 357 357 356 355 355 356 356 355 354 353 353 352 351 351 351 350 351 352 354 355 356 352 353 352 349 352 353 351 350 350 350
347 348 353 352 354 354 357 358 359 360 360 359 357 356 355 354 354 354 353 354 353 352 351 351 351 351 352 353 354 355 356 356 357 347 349 352 349 356 354 353 352 350 350
345 346 348 352 356 356 356 356 358 358 359 359 356 355 354 353 353 352 352 352 352 352 352 353 353 355 356 355 356 357 358 359 351 346 351 352 350 356 356 354 353 350 348
343 345 347 354 354 357 357 357 357 357 358 357 356 354 353 352 352 351 351 350 351 353 354 355 357 358 359 359 359 359 360 359 353 350 349 352 353 357 356 356 354 351 350
342 344 346 347 352 355 357 357 356 357 356 355 354 353 352 352 352 351 348 351 352 354 355 356 357 359 360 360 360 360 360 359 346 335 351 350 358 358 358 357 355 353 351
342 342 343 346 346 348 351 354 354 354 354 354 353 352 352 353 355 354 351 353 351 352 353 355 356 357 358 359 359 359 360 361 352 351 352 349 358 359 357 358 357 357 356
342 340 342 342 343 343 344 351 354 354 353 353 353 355 353 347 351 352 355 354 352 351 352 353 355 355 356 356 357 358 360 351 353 350 349 356 357 359 357 358 359 360 358
336 336 340 341 342 342 345 350 349 348 348 348 348 352 351 347 354 352 354 356 355 356 356 356 357 357 357 350 349 356 351 345 348 350 350 358 358 358 357 359 359 360 360
335 337 338 346 348 343 346 348 347 347 347 349 356 358 356 350 352 346 346 350 353 355 352 351 351 351 347 345 343 341 344 341 340 344 353 358 359 358 356 358 359 360 359
333 335 338 343 347 347 344 345 345 347 347 349 351 354 353 352 349 352 349 349 352 347 349 349 344 349 348 348 344 344 344 342 342 340 354 357 358 359 356 355 360 361 361
332 335 338 344 350 358 356 352 354 352 351 350 351 352 353 355 358 355 355 352 352 350 348 346 346 347 346 345 346 347 346 347 348 348 351 356 352 354 356 357 356 356 359
335 336 338 341 349 347 356 357 354 352 352 351 350 348 351 351 352 352 353 352 350 346 346 344 343 346 345 344 345 347 346 346 348 349 348 346 346 345 347 351 355 356 358
338 338 341 344 348 354 356 356 356 352 348 349 345 346 346 345 349 349 349 346 339 341 341 341 339 340 340 339 341 339 340 343 344 349 349 344 337 339 341 344 344 345 351
339 344 346 344 347 349 351 355 352 350 349 345 343 341 338 339 341 344 343 336 335 338 339 332 333 333 330 328 327 327 328 335 344 342 335 331 333 333 332 335 335 338 343
342 343 345 348 343 346 348 350 347 345 344 342 342 336 336 334 334 338 332 331 331 334 330 326 327 328 325 323 319 323 331 337 342 339 334 331 327 327 325 327 328 333 337
341 342 344 344 343 343 345 345 341 343 340 338 331 329 328 327 327 330 328 328 327 322 321 322 325 325 325 320 317 323 337 341 339 338 332 324 324 324 323 325 321 323 331
340 341 342 340 342 342 340 338 336 334 332 328 325 326 325 325 325 326 323 325 323 319 321 321 320 323 318 318 318 325 334 335 333 331 321 319 318 320 319 321 320 322 324
337 338 339 338 339 340 340 340 338 332 329 325 322 323 322 322 323 321 324 320 321 318 318 318 319 318 317 318 315 318 325 328 325 322 317 317 316 317 317 318 320 319 320
334 335 336 337 337 338 337 333 328 325 324 322 319 318 318 320 320 321 320 319 319 316 313 314 314 316 312 317 317 315 311 311 314 321 318 314 316 315 314 318 317 317 316
331 335 335 333 334 337 335 331 330 325 321 323 320 318 316 318 317 317 318 316 317 314 315 315 315 316 316 311 316 316 314 312 306 310 313 314 316 314 314 314 315 316 317
330 330 333 332 330 330 332 334 327 327 321 321 317 318 317 319 318 316 318 318 317 313 315 314 314 313 312 312 310 311 312 313 311 307 304 305 309 313 314 314 314 315 316
326 326 327 327 327 328 329 330 331 324 322 316 316 314 313 313 314 316 316 316 316 316 314 313 315 313 313 311 310 310 307 306 305 304 302 304 303 306 312 314 313 313 313
Wind_Speed
16 15 15 15 14 13 13 13 14 14 13 12 12 12 14 13 13 12 13 13 12 12 12 12 12 11 12 11 11 9 7 6 7 9 10 10 11 10 10 7 8 12 11
19 16 15 14 14 13 13 13 13 12 10 12 11 13 14 13 12 12 12 12 12 11 11 11 11 10 10 10 9 7 3 1 2 7 8 9 10 12 12 16 16 11 11
19 16 16 14 14 14 14 13 11 10 11 12 12 13 12 11 11 10 10 11 10 10 10 10 9 8 8 8 7 5 3 4 3 3 6 6 7 13 13 13 13 11 10
18 15 15 15 15 14 13 12 11 10 12 13 12 12 11 10 10 10 10 9 9 9 8 8 7 6 6 5 5 4 5 6 8 4 7 6 8 11 14 12 11 10 9
18 17 14 16 14 15 14 13 10 11 13 12 12 11 10 10 9 8 8 8 8 7 7 6 5 5 4 4 4 5 7 8 7 9 9 10 6 11 12 10 10 10 7
21 18 15 17 15 15 13 11 11 12 13 12 11 10 9 8 7 7 7 6 5 5 4 3 3 3 4 4 5 7 8 11 11 8 4 14 6 13 13 8 11 10 9
21 17 16 16 15 14 13 12 11 11 11 12 9 9 8 6 6 4 4 3 3 3 3 3 4 4 5 5 6 7 9 9 9 9 4 9 10 15 13 11 10 9 8
19 17 15 14 15 13 13 11 10 10 10 9 8 7 5 4 3 2 1 1 3 3 4 5 6 6 6 6 8 8 10 8 12 17 5 10 14 15 13 12 10 10 9
21 17 14 14 13 14 12 11 10 9 10 8 7 5 4 5 6 6 4 2 3 4 5 5 7 7 8 8 10 11 10 3 10 13 4 7 14 14 13 12 11 11 10
20 18 16 14 13 12 11 12 10 9 8 8 6 6 7 8 9 9 8 4 1 0 2 4 6 8 10 10 13 13 10 10 11 10 4 6 15 15 13 11 11 11 11
13 14 16 16 14 14 14 11 10 10 9 8 8 10 9 7 9 10 8 8 7 6 6 7 9 11 9 10 15 17 7 5 7 2 6 15 13 15 12 10 10 10 10
16 16 14 14 13 15 13 12 9 10 8 8 9 8 8 9 4 8 7 9 9 9 8 9 12 12 8 6 6 11 5 5 5 6 6 13 13 13 10 8 8 9 10
17 11 13 12 8 11 9 9 6 7 7 6 3 1 4 4 3 4 4 5 5 9 5 6 8 4 5 6 5 5 5 7 5 4 7 10 11 12 11 8 7 7 8
17 13 14 13 8 8 7 8 8 6 5 5 6 5 3 2 5 3 2 5 6 3 2 3 4 5 6 7 7 5 7 6 6 4 6 8 8 8 5 1 3 5 6
15 13 15 13 7 1 2 2 1 3 2 7 4 4 3 4 3 3 4 4 4 5 5 5 5 5 5 7 6 6 5 6 6 4 6 24 22 22 19 14 8 4 5
10 11 11 13 7 6 3 4 2 3 4 3 6 7 6 5 5 5 3 3 5 5 5 5 5 4 4 5 6 4 5 5 5 4 9 10 21 21 21 21 20 18 8
9 10 10 10 10 4 4 4 2 3 4 5 7 5 4 6 4 4 3 4 6 5 5 5 5 5 4 6 6 6 5 6 4 10 8 7 10 21 20 20 22 23 22
10 8 8 8 10 5 6 3 3 4 4 5 5 5 5 4 5 5 3 6 5 5 3 4 4 4 4 4 5 5 5 5 9 10 8 7 6 7 13 18 19 20 19
10 9 6 6 11 6 5 3 5 5 4 4 4 6 4 5 5 5 6 6 5 4 5 4 4 4 4 4 5 5 2 1 6 6 7 5 5 6 5 12 16 17 18
12 10 7 7 10 8 4 4 5 3 4 4 7 6 6 4 5 6 6 4 5 7 7 5 5 2 1 4 6 5 4 4 3 4 6 7 4 6 6 5 5 8 15
12 12 10 11 10 7 2 5 6 6 5 6 6 5 5 5 6 6 5 4 5 6 5 6 6 3 5 4 4 4 5 3 5 5 6 5 6 5 6 6 4 3 7
12 13 10 11 10 8 6 5 2 5 5 7 6 5 5 4 5 5 4 5 5 5 6 6 8 4 2 4 3 3 5 4 4 5 5 4 3 5 4 7 5 6 4
13 11 13 9 10 7 6 6 7 8 5 5 5 5 4 5 6 5 6 5 4 5 5 5 6 6 4 3 6 3 3 3 3 2 5 2 5 5 4 5 4 6 5
13 8 10 11 10 7 6 6 8 5 6 5 6 6 5 4 6 5 5 5 4 5 5 4 5 5 4 4 2 4 3 4 4 4 2 2 4 4 5 4 3 5 5
14 12 6 9 9 6 3 2 6 5 6 6 8 6 6 3 4 6 5 5 5 5 5 5 6 8 6 4 4 3 2 3 5 3 2 5 5 3 3 4 1 4 5
14 11 10 8 6 5 4 5 4 7 6 8 7 6 6 6 4 5 6 5 5 5 5 5 5 7 5 6 6 5 5 4 5 4 3 4 4 5 2 4 4 4 5
Wind_Direction
117 123 121 114 113 112 110 106 100 98 99 102 97 94 93 87 82 81 82 79 77 75 73 71 66 62 64 59 60 59 58 64 92 98 97 98 97 85 63 20 126 88 87
127 124 121 120 116 121 118 109 106 111 108 105 106 94 88 87 85 80 73 74 72 71 72 68 64 59 61 58 55 54 50 276 158 121 124 118 115 102 79 64 82 90 86
121 126 124 122 123 120 114 113 113 115 109 103 97 92 92 91 86 79 74 71 72 71 69 65 62 58 55 55 51 32 335 302 277 178 189 164 125 113 97 92 96 96 91
131 125 130 128 127 124 125 123 119 113 106 100 96 96 95 86 80 74 70 67 67 67 64 62 56 49 47 44 33 345 315 312 295 215 221 231 134 127 114 112 110 106 102
128 121 127 133 128 128 129 124 121 112 103 100 103 101 95 90 82 74 70 64 62 58 53 52 41 33 23 21 354 315 309 296 299 295 227 198 143 131 124 123 124 118 91
119 125 127 135 132 131 131 129 119 114 112 109 108 106 99 91 79 70 62 57 56 57 53 26 19 358 349 349 323 305 303 303 317 276 144 137 123 144 139 145 122 128 120
117 128 135 138 132 131 131 125 115 110 110 113 113 108 105 98 86 70 58 44 14 10 353 335 320 316 311 312 297 296 294 304 311 289 129 111 132 150 146 147 138 139 138
127 133 138 137 134 131 133 128 120 114 111 115 115 112 109 110 118 141 138 298 315 309 303 300 296 291 289 286 276 273 279 312 358 331 153 117 152 149 151 155 154 157 162
130 134 138 141 144 130 133 135 135 128 124 128 131 141 164 189 195 206 194 259 298 311 300 292 282 275 270 259 258 254 258 211 112 254 254 124 155 151 157 164 169 174 174
135 144 151 148 154 157 152 148 145 146 146 152 166 190 216 227 221 210 192 175 145 173 272 280 278 274 268 270 266 256 237 248 215 222 292 128 155 147 160 175 185 185 186
135 156 157 159 160 169 155 159 162 168 174 189 201 223 227 232 212 198 178 168 182 198 207 229 246 254 256 268 269 270 262 243 236 182 131 155 151 141 161 183 196 196 199
153 172 146 170 165 173 155 151 182 180 192 198 198 185 220 227 154 166 199 177 205 221 218 236 253 257 255 247 244 259 245 241 232 149 125 152 148 142 163 191 204 208 209
169 167 169 131 167 169 146 160 186 176 196 199 187 168 271 342 187 214 194 183 211 225 225 229 250 249 8 337 328 312 354 339 337 93 129 146 142 149 164 193 220 225 224
166 168 153 149 185 187 183 168 186 182 178 168 180 152 241 252 257 246 13 176 226 90 334 320 350 34 360 331 299 342 3 343 348 357 135 136 79 61 72 323 271 256 241
162 159 155 140 172 223 334 156 223 140 133 123 135 117 344 306 20 13 42 350 360 24 358 2 345 18 329 306 322 13 346 348 323 355 59 70 62 54 51 46 26 343 283
149 145 147 145 156 175 235 109 109 59 85 71 59 45 1 348 16 343 343 25 33 16 4 342 3 331 325 312 315 351 351 295 298 16 97 81 72 61 54 51 45 42 45
131 160 123 145 147 190 159 86 87 102 151 86 81 47 31 15 24 328 42 36 44 341 346 359 351 338 332 330 342 356 335 308 3 56 77 99 83 71 57 57 54 50 45
135 118 159 160 129 77 109 146 124 80 75 88 100 83 36 33 29 302 32 54 13 296 11 17 330 328 351 353 342 322 304 3 68 73 57 46 41 62 63 63 59 53 54
130 148 174 133 144 131 114 150 89 73 90 86 106 90 26 40 28 335 49 50 331 353 43 360 350 25 315 357 307 264 169 10 85 81 104 103 86 92 98 82 71 66 62
147 148 160 110 108 110 149 119 122 160 103 95 64 64 11 34 26 340 92 48 8 43 26 354 309 347 353 4 306 312 58 70 108 106 91 65 5 81 69 73 114 89 80
162 156 161 127 128 117 125 180 154 159 113 92 88 77 47 22 33 1 61 44 65 58 29 347 326 258 56 351 258 230 101 109 57 80 79 67 342 74 72 54 49 70 100
168 153 174 149 151 169 190 186 169 129 104 93 84 70 66 54 38 65 47 60 12 99 56 13 342 329 84 28 334 270 154 125 62 64 87 85 18 51 54 80 65 45 30
176 177 165 162 152 193 121 105 81 85 99 121 145 123 79 74 69 61 57 44 48 46 63 31 348 13 340 60 29 334 336 97 130 179 113 126 105 96 37 111 62 80 21
172 187 157 143 157 195 140 143 140 155 171 154 111 99 91 80 94 79 83 79 51 60 38 35 5 333 350 23 25 81 28 78 65 132 161 59 85 99 105 62 45 110 73
163 159 164 138 149 124 155 133 147 106 123 112 103 121 93 86 85 90 80 64 54 82 66 50 19 9 15 6 359 351 12 96 46 52 337 352 13 15 101 112 106 78 87
147 138 115 115 125 142 134 110 164 126 127 110 125 160 161 135 100 79 75 68 47 75 55 41 61 31 25 20 345 30 36 32 24 31 356 2 354 307 135 90 70 64 65